• în România
  • Lista ţărilor
  • Pe 7 zile
  • Temperatura apei
  • Hartă satelitară
  • Meteo pe hartă
  • Widget-uri
  • user-avatar
    Intrare

    Meteo pe oră la Maloe Nikitino

    Astăzi, 21 Septembrie, Vineri

    Timp Temperatura Precipitaţii Vânt Presiune Umiditate
    00:00 +14°C° 0 mm 2 m/s 745 mmHg 92%
    01:00 +14°C° 0 mm 2 m/s 745 mmHg 93%
    02:00 +14°C° 0 mm 2 m/s 746 mmHg 94%
    03:00 +14°C° 0 mm 2 m/s 746 mmHg 94%
    04:00 +13°C° 0 mm 2 m/s 746 mmHg 95%
    05:00 +13°C° 0 mm 2 m/s 746 mmHg 95%
    06:00 +14°C° 0 mm 3 m/s 746 mmHg 90%
    07:00 +16°C° 0 mm 3 m/s 746 mmHg 85%
    08:00 +17°C° 0 mm 3 m/s 747 mmHg 80%
    09:00 +19°C° 0 mm 3 m/s 747 mmHg 74%
    10:00 +20°C° 0 mm 3 m/s 747 mmHg 68%
    11:00 +22°C° 0 mm 4 m/s 747 mmHg 62%
    12:00 +22°C° 0 mm 4 m/s 747 mmHg 61%
    13:00 +23°C° 0 mm 4 m/s 747 mmHg 59%
    14:00 +23°C° 0 mm 4 m/s 747 mmHg 58%
    15:00 +22°C° 0.4 mm 3 m/s 747 mmHg 66%
    16:00 +21°C° 0.4 mm 3 m/s 746 mmHg 74%
    17:00 +20°C° 0.4 mm 2 m/s 746 mmHg 82%
    18:00 +19°C° 0 mm 2 m/s 746 mmHg 86%
    19:00 +18°C° 0 mm 2 m/s 746 mmHg 90%
    20:00 +17°C° 0 mm 2 m/s 746 mmHg 93%
    21:00 +17°C° 0 mm 2 m/s 746 mmHg 94%
    22:00 +17°C° 0 mm 2 m/s 746 mmHg 94%
    23:00 +16°C° 0 mm 2 m/s 746 mmHg 94%

    Mâine, 22 Septembrie, Sâmbătă

    Timp Temperatura Precipitaţii Vânt Presiune Umiditate
    00:00 +16°C° 0 mm 2 m/s 746 mmHg 94%
    01:00 +16°C° 0 mm 3 m/s 746 mmHg 94%
    02:00 +16°C° 0 mm 3 m/s 746 mmHg 94%
    03:00 +16°C° 0 mm 3 m/s 745 mmHg 94%
    04:00 +16°C° 0 mm 3 m/s 745 mmHg 95%
    05:00 +14°C° 0 mm 3 m/s 745 mmHg 95%
    06:00 +15°C° 0 mm 4 m/s 744 mmHg 91%
    07:00 +17°C° 0 mm 4 m/s 744 mmHg 87%
    08:00 +18°C° 0 mm 4 m/s 744 mmHg 83%
    09:00 +20°C° 0 mm 5 m/s 743 mmHg 75%
    10:00 +21°C° 0 mm 5 m/s 743 mmHg 67%
    11:00 +23°C° 0 mm 6 m/s 742 mmHg 60%
    12:00 +23°C° 0 mm 6 m/s 742 mmHg 57%
    13:00 +24°C° 0 mm 6 m/s 742 mmHg 53%
    14:00 +24°C° 0 mm 6 m/s 741 mmHg 50%
    15:00 +23°C° 0 mm 5 m/s 741 mmHg 55%
    16:00 +22°C° 0 mm 5 m/s 741 mmHg 59%
    17:00 +21°C° 0 mm 4 m/s 741 mmHg 64%
    18:00 +19°C° 0.2 mm 4 m/s 741 mmHg 71%
    19:00 +18°C° 0.2 mm 3 m/s 741 mmHg 78%
    20:00 +16°C° 0.2 mm 3 m/s 741 mmHg 85%
    21:00 +14°C° 0.2 mm 3 m/s 741 mmHg 86%
    22:00 +14°C° 0.2 mm 2 m/s 741 mmHg 88%
    23:00 +13°C° 0.2 mm 2 m/s 741 mmHg 90%

    Poimâine, 23 Septembrie, Duminică

    Timp Temperatura Precipitaţii Vânt Presiune Umiditate
    00:00 +12°C° 0.3 mm 2 m/s 741 mmHg 89%
    01:00 +12°C° 0.3 mm 2 m/s 740 mmHg 88%
    02:00 +10°C° 0.3 mm 2 m/s 740 mmHg 88%
    03:00 +10°C° 0.2 mm 2 m/s 740 mmHg 89%
    04:00 +10°C° 0.2 mm 2 m/s 740 mmHg 90%
    05:00 +10°C° 0.2 mm 2 m/s 740 mmHg 91%
    06:00 +10°C° 0.6 mm 2 m/s 740 mmHg 92%
    07:00 +10°C° 0.6 mm 2 m/s 740 mmHg 93%
    08:00 +9°C° 0.6 mm 2 m/s 740 mmHg 93%
    09:00 +10°C° 0.8 mm 2 m/s 740 mmHg 93%
    10:00 +10°C° 0.8 mm 2 m/s 740 mmHg 93%
    11:00 +10°C° 0.8 mm 2 m/s 739 mmHg 92%
    12:00 +10°C° 0.9 mm 2 m/s 739 mmHg 92%
    13:00 +10°C° 0.9 mm 2 m/s 739 mmHg 92%
    14:00 +10°C° 0.9 mm 2 m/s 739 mmHg 91%
    15:00 +10°C° 0.6 mm 2 m/s 739 mmHg 93%
    16:00 +11°C° 0.6 mm 1 m/s 739 mmHg 94%
    17:00 +11°C° 0.6 mm 1 m/s 739 mmHg 95%
    18:00 +10°C° 0.1 mm 1 m/s 739 mmHg 95%
    19:00 +9°C° 0.1 mm 2 m/s 739 mmHg 96%
    20:00 +9°C° 0.1 mm 2 m/s 739 mmHg 96%
    21:00 +8°C° 0 mm 2 m/s 739 mmHg 96%
    22:00 +8°C° 0 mm 2 m/s 739 mmHg 96%
    23:00 +8°C° 0 mm 2 m/s 739 mmHg 96%

    24 Septembrie, Luni

    Timp Temperatura Precipitaţii Vânt Presiune Umiditate
    00:00 +7°C° 0 mm 2 m/s 739 mmHg 96%
    01:00 +7°C° 0 mm 2 m/s 739 mmHg 96%
    02:00 +6°C° 0 mm 2 m/s 739 mmHg 97%
    03:00 +6°C° 0 mm 2 m/s 739 mmHg 97%
    04:00 +6°C° 0 mm 2 m/s 739 mmHg 97%
    05:00 +5°C° 0 mm 3 m/s 738 mmHg 97%
    06:00 +7°C° 0 mm 3 m/s 739 mmHg 94%
    07:00 +7°C° 0 mm 3 m/s 739 mmHg 92%
    08:00 +8°C° 0 mm 3 m/s 739 mmHg 89%
    09:00 +8°C° 0 mm 3 m/s 739 mmHg 87%
    10:00 +8°C° 0 mm 3 m/s 739 mmHg 85%
    11:00 +9°C° 0 mm 3 m/s 740 mmHg 83%
    12:00 +9°C° 0 mm 3 m/s 740 mmHg 81%
    13:00 +10°C° 0 mm 3 m/s 740 mmHg 79%
    14:00 +10°C° 0 mm 3 m/s 740 mmHg 77%
    15:00 +9°C° 0 mm 3 m/s 740 mmHg 80%
    16:00 +9°C° 0 mm 2 m/s 740 mmHg 83%
    17:00 +8°C° 0 mm 2 m/s 740 mmHg 86%
    18:00 +8°C° 0 mm 2 m/s 740 mmHg 88%
    19:00 +7°C° 0 mm 2 m/s 740 mmHg 89%
    20:00 +7°C° 0 mm 2 m/s 740 mmHg 91%
    21:00 +7°C° 0.1 mm 2 m/s 740 mmHg 91%
    22:00 +7°C° 0.1 mm 2 m/s 739 mmHg 91%
    23:00 +7°C° 0.1 mm 2 m/s 739 mmHg 91%

    25 Septembrie, Marţi

    Timp Temperatura Precipitaţii Vânt Presiune Umiditate
    00:00 +7°C° 0.4 mm 3 m/s 739 mmHg 92%
    01:00 +7°C° 0.4 mm 3 m/s 738 mmHg 93%
    02:00 +7°C° 0.4 mm 3 m/s 738 mmHg 93%
    03:00 +6°C° 0.6 mm 4 m/s 737 mmHg 93%
    04:00 +6°C° 0.6 mm 5 m/s 736 mmHg 92%
    05:00 +7°C° 0.6 mm 5 m/s 736 mmHg 91%
    06:00 +7°C° 1 mm 5 m/s 735 mmHg 91%
    07:00 +7°C° 1 mm 6 m/s 734 mmHg 91%
    08:00 +7°C° 1 mm 6 m/s 734 mmHg 90%
    09:00 +7°C° 1.6 mm 6 m/s 733 mmHg 91%
    10:00 +7°C° 1.6 mm 5 m/s 732 mmHg 91%
    11:00 +7°C° 1.6 mm 5 m/s 732 mmHg 92%
    12:00 +7°C° 1.3 mm 5 m/s 732 mmHg 92%
    13:00 +7°C° 1.3 mm 4 m/s 731 mmHg 92%
    14:00 +8°C° 1.3 mm 4 m/s 731 mmHg 92%
    15:00 +8°C° 0.6 mm 4 m/s 731 mmHg 92%
    16:00 +9°C° 0.6 mm 3 m/s 731 mmHg 93%
    17:00 +9°C° 0.6 mm 3 m/s 731 mmHg 93%
    18:00 +8°C° 0.2 mm 3 m/s 731 mmHg 94%
    19:00 +8°C° 0.2 mm 2 m/s 731 mmHg 95%
    20:00 +8°C° 0.2 mm 2 m/s 730 mmHg 96%
    21:00 +8°C° 0.4 mm 2 m/s 731 mmHg 96%
    22:00 +8°C° 0.4 mm 2 m/s 731 mmHg 97%
    23:00 +8°C° 0.4 mm 2 m/s 731 mmHg 97%

    26 Septembrie, Miercuri

    Timp Temperatura Precipitaţii Vânt Presiune Umiditate
    00:00 +8°C° 0.7 mm 2 m/s 731 mmHg 97%
    01:00 +8°C° 0.7 mm 2 m/s 731 mmHg 97%
    02:00 +7°C° 0.7 mm 2 m/s 731 mmHg 97%
    03:00 +7°C° 1 mm 2 m/s 731 mmHg 97%
    04:00 +7°C° 1 mm 2 m/s 731 mmHg 97%
    05:00 +7°C° 1 mm 2 m/s 731 mmHg 97%
    06:00 +7°C° 0.5 mm 2 m/s 732 mmHg 96%
    07:00 +8°C° 0.5 mm 2 m/s 732 mmHg 95%
    08:00 +8°C° 0.5 mm 2 m/s 733 mmHg 94%
    09:00 +8°C° 0.3 mm 2 m/s 733 mmHg 92%
    10:00 +9°C° 0.3 mm 3 m/s 734 mmHg 91%
    11:00 +9°C° 0.3 mm 3 m/s 735 mmHg 90%
    12:00 +8°C° 0.3 mm 4 m/s 736 mmHg 89%
    13:00 +8°C° 0.3 mm 4 m/s 737 mmHg 88%
    14:00 +7°C° 0.3 mm 5 m/s 737 mmHg 88%
    15:00 +7°C° 0.2 mm 5 m/s 738 mmHg 88%
    16:00 +7°C° 0.2 mm 5 m/s 739 mmHg 87%
    17:00 +6°C° 0.2 mm 4 m/s 740 mmHg 87%
    18:00 +6°C° 0.1 mm 5 m/s 741 mmHg 88%
    19:00 +6°C° 0.1 mm 5 m/s 742 mmHg 88%
    20:00 +6°C° 0.1 mm 5 m/s 742 mmHg 88%
    21:00 +5°C° 0 mm 5 m/s 743 mmHg 88%
    22:00 +5°C° 0 mm 4 m/s 744 mmHg 88%
    23:00 +4°C° 0 mm 4 m/s 744 mmHg 87%
    Arată mai mult